,,,PA_Meas_PMT16A,,PR_Meas_QMR101_102,,RH_Meas_QMH101,,SR_Meas_QMS101,,TA_Meas_QMH101,,GenWind,,GenWind,
date,time,status,PA,status,PR,status,RH,status,SR,status,TA,status,DirAvg,status,SpdAvg,
2009-06-14, 00:00:04,VALID,1001.28,VALID,0,VALID,82.8424,VALID,0.112286,VALID,25.1826,VALID,121,VALID,0.664453,
2009-06-14, 00:01:04,VALID,1001.29,VALID,0,VALID,83.1247,VALID,0,VALID,25.1631,VALID,128,VALID,0.494922,
2009-06-14, 00:02:04,VALID,1001.29,VALID,0,VALID,82.5143,VALID,0,VALID,25.1845,VALID,140,VALID,1.55039,
2009-06-14, 00:03:04,VALID,1001.25,VALID,0,VALID,82.6059,VALID,0.112286,VALID,25.2021,VALID,137,VALID,0.800781,
2009-06-14, 00:04:04,VALID,1001.25,VALID,0,VALID,82.9645,VALID,0,VALID,25.2217,VALID,124,VALID,0.721484,
2009-06-14, 00:05:04,VALID,1001.23,VALID,0,VALID,82.7661,VALID,0,VALID,25.2021,VALID,109,VALID,0.946094,
2009-06-14, 00:06:04,VALID,1001.18,VALID,0,VALID,83.0408,VALID,0,VALID,25.2021,VALID,92,VALID,1.2375,
2009-06-14, 00:07:04,VALID,1001.14,VALID,0,VALID,82.7127,VALID,0.112286,VALID,25.1826,VALID,122,VALID,0.983203,
2009-06-14, 00:08:04,VALID,1001.14,VALID,0,VALID,82.9035,VALID,0,VALID,25.1826,VALID,135,VALID,0.842188,
2009-06-14, 00:09:04,VALID,1001.14,VALID,0,VALID,82.8195,VALID,0,VALID,25.2021,VALID,137,VALID,0.953516,
2009-06-14, 00:10:04,VALID,1001.12,VALID,0,VALID,82.9035,VALID,0,VALID,25.204,VALID,113,VALID,0.9,
2009-06-14, 00:11:04,VALID,1001.09,VALID,0,VALID,83.0332,VALID,0,VALID,25.204,VALID,106,VALID,0.801172,
2009-06-14, 00:12:04,VALID,1001.08,VALID,0,VALID,83.0408,VALID,0,VALID,25.1845,VALID,108,VALID,0.60625,
2009-06-14, 00:13:04,VALID,1001.1,VALID,0,VALID,83.4757,VALID,0,VALID,25.165,VALID,108,VALID,0.498828,
2009-06-14, 00:14:04,VALID,1001.09,VALID,0,VALID,83.8724,VALID,0,VALID,25.1455,VALID,108,VALID,0.369531,
2009-06-14, 00:15:04,VALID,1001.12,VALID,0,VALID,83.964,VALID,0,VALID,25.126,VALID,108,VALID,0.140625,
2009-06-14, 00:16:05,VALID,1001.14,VALID,0,VALID,84.2997,VALID,0,VALID,25.0674,VALID,108,VALID,0.0460938,
2009-06-14, 00:17:05,VALID,1001.15,VALID,0,VALID,85.0016,VALID,0,VALID,25.0107,VALID,108,VALID,0.0519531,
2009-06-14, 00:18:05,VALID,1001.17,VALID,0,VALID,85.0474,VALID,0,VALID,24.9308,VALID,108,VALID,0.326172,
2009-06-14, 00:19:05,VALID,1001.14,VALID,0,VALID,85.6196,VALID,0,VALID,24.8722,VALID,108,VALID,0.269141,
2009-06-14, 00:20:05,VALID,1001.13,VALID,0,VALID,86.0621,VALID,0,VALID,24.7727,VALID,69,VALID,0.676172,
2009-06-14, 00:21:05,VALID,1001.16,VALID,0,VALID,86.5123,VALID,0,VALID,24.6965,VALID,62,VALID,0.848437,
2009-06-14, 00:22:05,VALID,1001.15,VALID,0,VALID,86.8709,VALID,0,VALID,24.5989,VALID,41,VALID,0.8375,
2009-06-14, 00:23:05,VALID,1001.18,VALID,0,VALID,87.3363,VALID,0,VALID,24.5209,VALID,29,VALID,0.823828,
2009-06-14, 00:24:05,VALID,1001.17,VALID,0,VALID,87.6491,VALID,0,VALID,24.4233,VALID,1,VALID,1.13906,
2009-06-14, 00:25:05,VALID,1001.19,VALID,0,VALID,88.2442,VALID,0,VALID,24.3452,VALID,1,VALID,0.482031,
2009-06-14, 00:26:05,VALID,1001.24,VALID,0,VALID,88.4883,VALID,0,VALID,24.3062,VALID,344,VALID,0.607031,
2009-06-14, 00:27:05,VALID,1001.26,VALID,0,VALID,88.7172,VALID,0,VALID,24.2671,VALID,344,VALID,0.414844,
2009-06-14, 00:28:05,VALID,1001.27,VALID,0,VALID,88.763,VALID,0,VALID,24.2476,VALID,344,VALID,0.417188,
2009-06-14, 00:29:05,VALID,1001.25,VALID,0,VALID,89.0377,VALID,0,VALID,24.2476,VALID,344,VALID,0.567187,
2009-06-14, 00:30:05,VALID,1001.28,VALID,0,VALID,89.0071,VALID,0,VALID,24.2281,VALID,344,VALID,0.212109,
2009-06-14, 00:31:05,VALID,1001.27,VALID,0,VALID,88.9156,VALID,0,VALID,24.2281,VALID,344,VALID,0.313672,
2009-06-14, 00:32:05,VALID,1001.29,VALID,0,VALID,88.6638,VALID,0,VALID,24.2281,VALID,344,VALID,0.210938,
2009-06-14, 00:33:05,VALID,1001.26,VALID,0,VALID,88.7783,VALID,0,VALID,24.2476,VALID,344,VALID,0,
2009-06-14, 00:34:05,VALID,1001.24,VALID,0,VALID,88.6104,VALID,0,VALID,24.2476,VALID,351,VALID,0.587891,
2009-06-14, 00:35:05,VALID,1001.27,VALID,0,VALID,88.2442,VALID,0,VALID,24.2476,VALID,13,VALID,0.669922,
2009-06-14, 00:36:05,VALID,1001.27,VALID,0,VALID,88.1068,VALID,0,VALID,24.2671,VALID,13,VALID,0.662109,
2009-06-14, 00:37:05,VALID,1001.26,VALID,0,VALID,88.0229,VALID,0,VALID,24.2866,VALID,35,VALID,0.824609,
2009-06-14, 00:38:05,VALID,1001.24,VALID,0,VALID,87.7254,VALID,0,VALID,24.2866,VALID,35,VALID,0.973047,
2009-06-14, 00:39:05,VALID,1001.26,VALID,0,VALID,87.8093,VALID,0,VALID,24.3257,VALID,40,VALID,1.10586,
2009-06-14, 00:40:05,VALID,1001.25,VALID,0,VALID,87.672,VALID,0,VALID,24.3452,VALID,41,VALID,1.00195,
2009-06-14, 00:41:05,VALID,1001.29,VALID,0,VALID,87.5041,VALID,0,VALID,24.3647,VALID,42,VALID,0.902344,
2009-06-14, 00:42:05,VALID,1001.28,VALID,0,VALID,87.3897,VALID,0,VALID,24.3647,VALID,43,VALID,1.02148,
2009-06-14, 00:43:05,VALID,1001.3,VALID,0,VALID,87.6262,VALID,0,VALID,24.3647,VALID,50,VALID,1.08633,
2009-06-14, 00:44:05,VALID,1001.31,VALID,0,VALID,87.7101,VALID,0,VALID,24.3647,VALID,45,VALID,0.935547,
2009-06-14, 00:45:05,VALID,1001.33,VALID,0,VALID,87.8627,VALID,0,VALID,24.3452,VALID,46,VALID,0.580078,
2009-06-14, 00:46:05,VALID,1001.32,VALID,0,VALID,88.0306,VALID,0,VALID,24.2848,VALID,62,VALID,0.539063,
2009-06-14, 00:47:05,VALID,1001.32,VALID,0,VALID,88.3129,VALID,0,VALID,24.2866,VALID,62,VALID,0.620703,
2009-06-14, 00:48:05,VALID,1001.32,VALID,0,VALID,88.4654,VALID,0,VALID,24.2476,VALID,55,VALID,0.432813,
2009-06-14, 00:49:05,VALID,1001.31,VALID,0,VALID,88.6867,VALID,0,VALID,24.2476,VALID,44,VALID,0.389844,
2009-06-14, 00:50:05,VALID,1001.32,VALID,0,VALID,88.8698,VALID,0,VALID,24.2086,VALID,43,VALID,0.450391,
2009-06-14, 00:51:05,VALID,1001.32,VALID,0,VALID,89.03,VALID,0,VALID,24.1891,VALID,43,VALID,0.371094,
2009-06-14, 00:52:05,VALID,1001.32,VALID,0,VALID,89.0834,VALID,0,VALID,24.1696,VALID,43,VALID,0.442187,
2009-06-14, 00:53:05,VALID,1001.3,VALID,0,VALID,89.1826,VALID,0,VALID,24.15,VALID,35,VALID,0.672266,
2009-06-14, 00:54:05,VALID,1001.31,VALID,0,VALID,89.4268,VALID,0,VALID,24.15,VALID,33,VALID,0.586719,
2009-06-14, 00:55:05,VALID,1001.29,VALID,0,VALID,89.4191,VALID,0,VALID,24.15,VALID,32,VALID,0.555078,
2009-06-14, 00:56:05,VALID,1001.27,VALID,0,VALID,89.114,VALID,0,VALID,24.1891,VALID,319,VALID,0.791797,
2009-06-14, 00:57:05,VALID,1001.29,VALID,0,VALID,88.9766,VALID,0,VALID,24.2086,VALID,319,VALID,0.608594,
2009-06-14, 00:58:05,VALID,1001.29,VALID,0,VALID,88.8851,VALID,0,VALID,24.2067,VALID,319,VALID,0.616406,
2009-06-14, 00:59:05,VALID,1001.28,VALID,0,VALID,89.0682,VALID,0,VALID,24.2476,VALID,319,VALID,0.572266,
2009-06-14, 01:00:05,VALID,1001.26,VALID,0,VALID,88.9537,VALID,0,VALID,24.2281,VALID,320,VALID,0.64375,
2009-06-14, 01:01:05,VALID,1001.24,VALID,0,VALID,88.8927,VALID,0,VALID,24.2281,VALID,323,VALID,0.626953,
2009-06-14, 01:02:05,VALID,1001.27,VALID,0,VALID,88.7783,VALID,0,VALID,24.2067,VALID,327,VALID,0.673828,
2009-06-14, 01:03:05,VALID,1001.27,VALID,0,VALID,88.8851,VALID,0,VALID,24.2281,VALID,327,VALID,0.571484,
2009-06-14, 01:04:05,VALID,1001.24,VALID,0,VALID,88.9995,VALID,0,VALID,24.2281,VALID,327,VALID,0.515234,
2009-06-14, 01:05:05,VALID,1001.22,VALID,0,VALID,89.0148,VALID,0,VALID,24.1872,VALID,327,VALID,0.612109,
2009-06-14, 01:06:05,VALID,1001.2,VALID,0,VALID,88.9766,VALID,0,VALID,24.1891,VALID,328,VALID,0.536719,
2009-06-14, 01:07:05,VALID,1001.2,VALID,0,VALID,89.1979,VALID,0,VALID,24.1482,VALID,328,VALID,0.501562,
2009-06-14, 01:08:05,VALID,1001.15,VALID,0,VALID,89.3963,VALID,0,VALID,24.15,VALID,331,VALID,0.520703,
2009-06-14, 01:09:05,VALID,1001.13,VALID,0,VALID,89.5107,VALID,0,VALID,24.1305,VALID,331,VALID,0.5375,
2009-06-14, 01:10:05,VALID,1001.08,VALID,0,VALID,89.732,VALID,0.112286,VALID,24.0701,VALID,331,VALID,0.446094,
2009-06-14, 01:11:05,VALID,1001.07,VALID,0,VALID,89.6251,VALID,0,VALID,24.0525,VALID,20,VALID,0.830469,
2009-06-14, 01:12:05,VALID,1001.05,VALID,0,VALID,89.5031,VALID,0,VALID,23.9939,VALID,24,VALID,0.667969,
2009-06-14, 01:13:05,VALID,1001.04,VALID,0,VALID,89.6099,VALID,0,VALID,23.9336,VALID,37,VALID,0.791016,
2009-06-14, 01:14:05,VALID,1001.03,VALID,0,VALID,89.6938,VALID,0,VALID,23.9159,VALID,46,VALID,1.47656,
2009-06-14, 01:15:05,VALID,1001.02,VALID,0,VALID,89.9151,VALID,0.112286,VALID,23.8573,VALID,39,VALID,1.68242,
2009-06-14, 01:16:05,VALID,1000.98,VALID,0,VALID,89.9761,VALID,0,VALID,23.8165,VALID,35,VALID,1.54844,
2009-06-14, 01:17:05,VALID,1000.96,VALID,0,VALID,90.1134,VALID,0,VALID,23.7775,VALID,50,VALID,1.65781,
2009-06-14, 01:18:05,VALID,1000.96,VALID,0,VALID,90.1821,VALID,0,VALID,23.7793,VALID,39,VALID,1.65391,
2009-06-14, 01:19:05,VALID,1000.97,VALID,0,VALID,90.3271,VALID,0,VALID,23.7793,VALID,45,VALID,1.34375,
2009-06-14, 01:20:05,VALID,1000.94,VALID,0,VALID,90.678,VALID,0,VALID,23.7597,VALID,58,VALID,1.28789,
2009-06-14, 01:21:05,VALID,1001,VALID,0,VALID,90.9603,VALID,0.112286,VALID,23.7189,VALID,56,VALID,1.23281,
2009-06-14, 01:22:05,VALID,1000.98,VALID,0,VALID,91.1129,VALID,0,VALID,23.6994,VALID,55,VALID,1.13008,
2009-06-14, 01:23:05,VALID,1000.99,VALID,0,VALID,91.1358,VALID,0,VALID,23.6817,VALID,53,VALID,1.40039,
2009-06-14, 01:24:05,VALID,1001,VALID,0,VALID,91.1816,VALID,0,VALID,23.6409,VALID,47,VALID,1.34219,
2009-06-14, 01:25:05,VALID,1001.05,VALID,0,VALID,91.0137,VALID,0,VALID,23.664,VALID,45,VALID,1.06602,
2009-06-14, 01:26:05,VALID,1001.05,VALID,0,VALID,91.0214,VALID,0,VALID,23.6232,VALID,45,VALID,1.07305,
2009-06-14, 01:27:05,VALID,1001.06,VALID,0,VALID,90.9756,VALID,0,VALID,23.625,VALID,44,VALID,1.09453,
2009-06-14, 01:28:05,VALID,1001.09,VALID,0,VALID,90.9985,VALID,0,VALID,23.5859,VALID,45,VALID,1.20313,
2009-06-14, 01:29:05,VALID,1001.08,VALID,0,VALID,91.0748,VALID,0,VALID,23.5451,VALID,42,VALID,1.16836,
2009-06-14, 01:30:05,VALID,1001.1,VALID,0,VALID,91.09,VALID,0,VALID,23.5646,VALID,38,VALID,1.16641,
2009-06-14, 01:31:05,VALID,1001.15,VALID,0,VALID,91.1663,VALID,0,VALID,23.5469,VALID,33,VALID,1.13281,
2009-06-14, 01:32:05,VALID,1001.13,VALID,0,VALID,91.1663,VALID,0,VALID,23.5469,VALID,29,VALID,0.889453,
2009-06-14, 01:33:05,VALID,1001.13,VALID,0,VALID,91.1206,VALID,0,VALID,23.5079,VALID,27,VALID,1.01367,
2009-06-14, 01:34:05,VALID,1001.19,VALID,0,VALID,91.2274,VALID,0,VALID,23.5079,VALID,27,VALID,1.02695,
2009-06-14, 01:35:05,VALID,1001.2,VALID,0,VALID,91.296,VALID,0,VALID,23.4671,VALID,27,VALID,0.805078,
2009-06-14, 01:36:05,VALID,1001.19,VALID,0,VALID,91.2197,VALID,0,VALID,23.4866,VALID,27,VALID,0.50625,
2009-06-14, 01:37:05,VALID,1001.22,VALID,0,VALID,91.1434,VALID,0,VALID,23.4475,VALID,26,VALID,0.5625,
2009-06-14, 01:38:05,VALID,1001.25,VALID,0,VALID,91.174,VALID,0,VALID,23.4688,VALID,25,VALID,0.507422,
2009-06-14, 01:39:05,VALID,1001.25,VALID,0,VALID,91.3494,VALID,0,VALID,23.4493,VALID,23,VALID,0.650391,
2009-06-14, 01:40:05,VALID,1001.27,VALID,0,VALID,91.3266,VALID,0,VALID,23.428,VALID,23,VALID,0.44375,
2009-06-14, 01:41:05,VALID,1001.27,VALID,0,VALID,91.1663,VALID,0,VALID,23.428,VALID,23,VALID,0.406641,
2009-06-14, 01:42:05,VALID,1001.25,VALID,0,VALID,91.2808,VALID,0,VALID,23.428,VALID,23,VALID,0.444141,
2009-06-14, 01:43:05,VALID,1001.26,VALID,0,VALID,91.2045,VALID,0,VALID,23.4688,VALID,23,VALID,0.321875,
2009-06-14, 01:44:05,VALID,1001.26,VALID,0,VALID,91.174,VALID,0,VALID,23.4884,VALID,23,VALID,0.266406,
2009-06-14, 01:45:05,VALID,1001.23,VALID,0,VALID,91.2045,VALID,0,VALID,23.5079,VALID,23,VALID,0.23125,
2009-06-14, 01:46:05,VALID,1001.21,VALID,0,VALID,91.2579,VALID,0,VALID,23.5079,VALID,23,VALID,0.300781,
2009-06-14, 01:47:05,VALID,1001.19,VALID,0,VALID,91.2121,VALID,0,VALID,23.5079,VALID,23,VALID,0.349219,
2009-06-14, 01:48:05,VALID,1001.18,VALID,0,VALID,91.1129,VALID,0,VALID,23.5061,VALID,23,VALID,0.409766,
2009-06-14, 01:49:05,VALID,1001.12,VALID,0,VALID,90.9985,VALID,0,VALID,23.5451,VALID,23,VALID,0.455469,
2009-06-14, 01:50:05,VALID,1001.16,VALID,0,VALID,90.823,VALID,0,VALID,23.5451,VALID,23,VALID,0.44375,
2009-06-14, 01:51:05,VALID,1001.13,VALID,0,VALID,90.7162,VALID,0,VALID,23.6054,VALID,23,VALID,0.56875,
2009-06-14, 01:52:05,VALID,1001.15,VALID,0,VALID,90.6475,VALID,0,VALID,23.6054,VALID,23,VALID,0.541406,
2009-06-14, 01:53:05,VALID,1001.15,VALID,0,VALID,90.6551,VALID,0,VALID,23.625,VALID,23,VALID,0.476953,
2009-06-14, 01:54:05,VALID,1001.22,VALID,0,VALID,90.617,VALID,0,VALID,23.6054,VALID,23,VALID,0.495313,
2009-06-14, 01:55:05,VALID,1001.18,VALID,0,VALID,90.7009,VALID,0,VALID,23.6445,VALID,23,VALID,0.481641,
2009-06-14, 01:56:05,VALID,1001.18,VALID,0,VALID,91.0061,VALID,0,VALID,23.6622,VALID,23,VALID,0.321484,
2009-06-14, 01:57:05,VALID,1001.15,VALID,0,VALID,90.9527,VALID,0,VALID,23.6835,VALID,23,VALID,0.413672,
2009-06-14, 01:58:05,VALID,1001.15,VALID,0,VALID,91.029,VALID,0,VALID,23.6835,VALID,23,VALID,0.491016,
2009-06-14, 01:59:05,VALID,1001.12,VALID,0,VALID,90.9909,VALID,0,VALID,23.6835,VALID,23,VALID,0.425781,
2009-06-14, 02:00:05,VALID,1001.12,VALID,0,VALID,90.8688,VALID,0,VALID,23.6817,VALID,23,VALID,0.541797,
2009-06-14, 02:01:05,VALID,1001.07,VALID,0,VALID,90.8459,VALID,0,VALID,23.7012,VALID,23,VALID,0.580859,
2009-06-14, 02:02:05,VALID,1001.05,VALID,0,VALID,90.9374,VALID,0,VALID,23.7207,VALID,23,VALID,0.655469,
2009-06-14, 02:03:05,VALID,1001.02,VALID,0,VALID,90.8993,VALID,0,VALID,23.7402,VALID,23,VALID,0.791406,
2009-06-14, 02:04:05,VALID,1001.02,VALID,0,VALID,90.9374,VALID,0,VALID,23.7402,VALID,21,VALID,0.745313,
2009-06-14, 02:05:05,VALID,1000.97,VALID,0,VALID,90.9298,VALID,0,VALID,23.7616,VALID,21,VALID,0.693359,
2009-06-14, 02:06:05,VALID,1000.97,VALID,0,VALID,90.9603,VALID,0,VALID,23.7597,VALID,21,VALID,0.44375,
2009-06-14, 02:07:05,VALID,1000.94,VALID,0,VALID,91.0671,VALID,0,VALID,23.7793,VALID,21,VALID,0.414453,
2009-06-14, 02:08:05,VALID,1000.95,VALID,0,VALID,90.8459,VALID,0,VALID,23.8006,VALID,21,VALID,0.436328,
2009-06-14, 02:09:05,VALID,1000.93,VALID,0,VALID,91.0061,VALID,0,VALID,23.7988,VALID,21,VALID,0.232422,
2009-06-14, 02:10:05,VALID,1000.89,VALID,0,VALID,91.0824,VALID,0,VALID,23.7988,VALID,21,VALID,0.158984,
2009-06-14, 02:11:05,VALID,1000.86,VALID,0,VALID,91.1816,VALID,0,VALID,23.8183,VALID,21,VALID,0.254687,
2009-06-14, 02:12:05,VALID,1000.83,VALID,0,VALID,91.1968,VALID,0,VALID,23.8201,VALID,21,VALID,0.267969,
2009-06-14, 02:13:05,VALID,1000.84,VALID,0,VALID,91.1358,VALID,0,VALID,23.7988,VALID,21,VALID,0.339844,
2009-06-14, 02:14:05,VALID,1000.84,VALID,0,VALID,91.1892,VALID,0,VALID,23.7793,VALID,21,VALID,0.356641,
2009-06-14, 02:15:05,VALID,1000.84,VALID,0,VALID,91.1587,VALID,0,VALID,23.7793,VALID,21,VALID,0.351563,
2009-06-14, 02:16:05,VALID,1000.81,VALID,0,VALID,91.0443,VALID,0,VALID,23.7793,VALID,21,VALID,0.629687,
2009-06-14, 02:17:05,VALID,1000.82,VALID,0,VALID,90.8459,VALID,0,VALID,23.8201,VALID,21,VALID,0.6375,
2009-06-14, 02:18:05,VALID,1000.79,VALID,0,VALID,90.6017,VALID,0,VALID,23.8183,VALID,21,VALID,0.933984,
2009-06-14, 02:19:05,VALID,1000.76,VALID,0,VALID,90.2737,VALID,0,VALID,23.8786,VALID,21,VALID,0.972266,
2009-06-14, 02:20:05,VALID,1000.77,VALID,0,VALID,89.9609,VALID,0,VALID,23.8963,VALID,28,VALID,1.03555,
2009-06-14, 02:21:05,VALID,1000.75,VALID,0,VALID,89.7549,VALID,0,VALID,23.9567,VALID,38,VALID,1.09766,
2009-06-14, 02:22:05,VALID,1000.74,VALID,0,VALID,89.7549,VALID,0,VALID,23.9939,VALID,42,VALID,1.01055,
2009-06-14, 02:23:05,VALID,1000.76,VALID,0,VALID,89.854,VALID,0,VALID,24.0134,VALID,42,VALID,0.775781,
2009-06-14, 02:24:05,VALID,1000.75,VALID,0,VALID,89.9837,VALID,0,VALID,24.0329,VALID,42,VALID,0.467578,
2009-06-14, 02:25:05,VALID,1000.74,VALID,0,VALID,90.1363,VALID,0,VALID,24.0348,VALID,42,VALID,0.351953,
2009-06-14, 02:26:05,VALID,1000.74,VALID,0,VALID,90.2203,VALID,0,VALID,24.0134,VALID,43,VALID,0.553125,
2009-06-14, 02:27:05,VALID,1000.72,VALID,0,VALID,90.2355,VALID,0,VALID,24.0134,VALID,43,VALID,0.360938,
2009-06-14, 02:28:05,VALID,1000.72,VALID,0,VALID,90.205,VALID,0,VALID,24.0348,VALID,43,VALID,0.287109,
2009-06-14, 02:29:05,VALID,1000.69,VALID,0,VALID,90.2203,VALID,0,VALID,24.0134,VALID,43,VALID,0.0945313,
2009-06-14, 02:30:05,VALID,1000.7,VALID,0,VALID,90.2355,VALID,0,VALID,24.0153,VALID,43,VALID,0.286719,
2009-06-14, 02:31:05,VALID,1000.68,VALID,0,VALID,90.0906,VALID,0,VALID,23.9939,VALID,43,VALID,0.483203,
2009-06-14, 02:32:05,VALID,1000.69,VALID,0,VALID,89.9074,VALID,0,VALID,24.0134,VALID,39,VALID,0.626172,
2009-06-14, 02:33:05,VALID,1000.74,VALID,0,VALID,89.6862,VALID,0,VALID,24.0543,VALID,15,VALID,0.974609,
2009-06-14, 02:34:05,VALID,1000.75,VALID,0,VALID,89.6404,VALID,0,VALID,24.0738,VALID,7,VALID,1.02305,
2009-06-14, 02:35:05,VALID,1000.75,VALID,0,VALID,89.587,VALID,0,VALID,24.0915,VALID,7,VALID,0.882422,
2009-06-14, 02:36:05,VALID,1000.77,VALID,0,VALID,89.2971,VALID,0,VALID,24.1128,VALID,7,VALID,0.5875,
2009-06-14, 02:37:05,VALID,1000.76,VALID,0,VALID,89.0758,VALID,0,VALID,24.1128,VALID,358,VALID,0.403906,
2009-06-14, 02:38:05,VALID,1000.72,VALID,0,VALID,88.7783,VALID,0,VALID,24.1324,VALID,358,VALID,0.214062,
2009-06-14, 02:39:05,VALID,1000.74,VALID,0,VALID,88.969,VALID,0,VALID,24.1324,VALID,358,VALID,0,
2009-06-14, 02:40:05,VALID,1000.75,VALID,0,VALID,89.0071,VALID,0,VALID,24.111,VALID,358,VALID,0,
2009-06-14, 02:41:05,VALID,1000.73,VALID,0,VALID,89.0606,VALID,0,VALID,24.0915,VALID,358,VALID,0,
2009-06-14, 02:42:05,VALID,1000.76,VALID,0,VALID,89.1979,VALID,0,VALID,24.0933,VALID,358,VALID,0,
2009-06-14, 02:43:05,VALID,1000.79,VALID,0,VALID,89.2513,VALID,0,VALID,24.0738,VALID,358,VALID,0,
2009-06-14, 02:44:05,VALID,1000.79,VALID,0,VALID,89.4497,VALID,0,VALID,24.0525,VALID,358,VALID,0.148047,
2009-06-14, 02:45:05,VALID,1000.78,VALID,0,VALID,89.5489,VALID,0,VALID,24.0738,VALID,358,VALID,0.107813,
2009-06-14, 02:46:05,VALID,1000.77,VALID,0,VALID,89.4954,VALID,0,VALID,24.0738,VALID,358,VALID,0,
2009-06-14, 02:47:05,VALID,1000.75,VALID,0,VALID,89.4954,VALID,0,VALID,24.0543,VALID,358,VALID,0,
2009-06-14, 02:48:05,VALID,1000.78,VALID,0,VALID,89.4115,VALID,0,VALID,24.0543,VALID,358,VALID,0,
2009-06-14, 02:49:05,VALID,1000.77,VALID,0,VALID,89.0682,VALID,0,VALID,24.0134,VALID,358,VALID,0,
2009-06-14, 02:50:05,VALID,1000.73,VALID,0,VALID,88.9003,VALID,0,VALID,24.0543,VALID,358,VALID,0,
2009-06-14, 02:51:05,VALID,1000.72,VALID,0,VALID,88.8469,VALID,0,VALID,24.1128,VALID,358,VALID,0.382422,
2009-06-14, 02:52:05,VALID,1000.7,VALID,0,VALID,88.5417,VALID,0,VALID,24.1519,VALID,358,VALID,0.452734,
2009-06-14, 02:53:05,VALID,1000.7,VALID,0,VALID,88.3434,VALID,0,VALID,24.1714,VALID,358,VALID,0.64375,
2009-06-14, 02:54:05,VALID,1000.67,VALID,0,VALID,89.0606,VALID,0,VALID,24.2086,VALID,358,VALID,0.761328,
2009-06-14, 02:55:05,VALID,1000.67,VALID,0,VALID,89.2284,VALID,0,VALID,24.2299,VALID,358,VALID,0.747266,
2009-06-14, 02:56:05,VALID,1000.65,VALID,0,VALID,89.6099,VALID,0,VALID,24.1696,VALID,358,VALID,0.746094,
2009-06-14, 02:57:05,VALID,1000.63,VALID,0,VALID,89.5336,VALID,0,VALID,24.1519,VALID,34,VALID,0.883203,
2009-06-14, 02:58:05,VALID,1000.61,VALID,0,VALID,89.4497,VALID,0,VALID,24.111,VALID,34,VALID,0.739844,
2009-06-14, 02:59:05,VALID,1000.63,VALID,0,VALID,89.4954,VALID,0,VALID,24.1128,VALID,65,VALID,0.816406,
2009-06-14, 03:00:05,VALID,1000.63,VALID,0,VALID,89.5641,VALID,0,VALID,24.111,VALID,67,VALID,0.735547,
2009-06-14, 03:01:05,VALID,1000.62,VALID,0,VALID,89.3047,VALID,0,VALID,24.0543,VALID,65,VALID,0.808984,
2009-06-14, 03:02:04,VALID,1000.64,VALID,0,VALID,89.2284,VALID,0,VALID,24.0348,VALID,43,VALID,1.025,
2009-06-14, 03:03:04,VALID,1000.64,VALID,0,VALID,89.2513,VALID,0,VALID,23.9957,VALID,42,VALID,0.923437,
2009-06-14, 03:04:04,VALID,1000.65,VALID,0,VALID,89.6023,VALID,0,VALID,23.9567,VALID,37,VALID,1.19687,
2009-06-14, 03:05:04,VALID,1000.62,VALID,0,VALID,89.8464,VALID,0,VALID,23.8982,VALID,30,VALID,1.21406,
2009-06-14, 03:06:04,VALID,1000.66,VALID,0,VALID,89.9532,VALID,0,VALID,23.8786,VALID,25,VALID,1.41875,
2009-06-14, 03:07:04,VALID,1000.66,VALID,0,VALID,89.938,VALID,0,VALID,23.8183,VALID,25,VALID,1.15937,
2009-06-14, 03:08:04,VALID,1000.64,VALID,0,VALID,89.8388,VALID,0,VALID,23.8201,VALID,29,VALID,1.00469,
2009-06-14, 03:09:04,VALID,1000.69,VALID,0,VALID,90.2737,VALID,0,VALID,23.7793,VALID,45,VALID,0.776172,
2009-06-14, 03:10:04,VALID,1000.69,VALID,0,VALID,90.35,VALID,0,VALID,23.8006,VALID,45,VALID,0.4875,
2009-06-14, 03:11:04,VALID,1000.69,VALID,0,VALID,90.5636,VALID,0,VALID,23.7597,VALID,61,VALID,0.731641,
2009-06-14, 03:12:04,VALID,1000.69,VALID,0,VALID,90.8535,VALID,0,VALID,23.7616,VALID,72,VALID,0.954687,
2009-06-14, 03:13:04,VALID,1000.69,VALID,0,VALID,91.0595,VALID,0,VALID,23.7402,VALID,75,VALID,0.998828,
2009-06-14, 03:14:04,VALID,1000.69,VALID,0,VALID,91.3189,VALID,0,VALID,23.8006,VALID,75,VALID,0.962891,
2009-06-14, 03:15:04,VALID,1000.71,VALID,0,VALID,91.3952,VALID,0,VALID,23.8201,VALID,75,VALID,0.778125,
2009-06-14, 03:16:04,VALID,1000.72,VALID,0,VALID,91.3418,VALID,0,VALID,23.8201,VALID,74,VALID,0.739062,
2009-06-14, 03:17:04,VALID,1000.68,VALID,0,VALID,91.2274,VALID,0,VALID,23.8201,VALID,73,VALID,0.7625,
2009-06-14, 03:18:04,VALID,1000.67,VALID,0,VALID,91.0595,VALID,0,VALID,23.8006,VALID,56,VALID,0.779688,
2009-06-14, 03:19:04,VALID,1000.69,VALID,0,VALID,90.8611,VALID,0,VALID,23.7597,VALID,47,VALID,0.896094,
2009-06-14, 03:20:04,VALID,1000.68,VALID,0,VALID,90.7238,VALID,0,VALID,23.7225,VALID,45,VALID,0.764063,
2009-06-14, 03:21:04,VALID,1000.68,VALID,0,VALID,90.7543,VALID,0,VALID,23.703,VALID,45,VALID,0.888281,
2009-06-14, 03:22:04,VALID,1000.65,VALID,0,VALID,90.7238,VALID,0,VALID,23.664,VALID,45,VALID,0.865234,
2009-06-14, 03:23:04,VALID,1000.62,VALID,0,VALID,91.0671,VALID,0,VALID,23.625,VALID,45,VALID,1.00664,
2009-06-14, 03:24:04,VALID,1000.59,VALID,0,VALID,91.4028,VALID,0,VALID,23.625,VALID,59,VALID,0.912109,
2009-06-14, 03:25:04,VALID,1000.61,VALID,0,VALID,91.4105,VALID,0,VALID,23.6054,VALID,63,VALID,0.902344,
2009-06-14, 03:26:04,VALID,1000.61,VALID,0,VALID,91.441,VALID,0,VALID,23.6036,VALID,70,VALID,0.738672,
2009-06-14, 03:27:04,VALID,1000.62,VALID,0,VALID,91.4028,VALID,0,VALID,23.5841,VALID,73,VALID,0.851563,
2009-06-14, 03:28:04,VALID,1000.62,VALID,0,VALID,91.2426,VALID,0,VALID,23.6054,VALID,74,VALID,0.88125,
2009-06-14, 03:29:04,VALID,1000.65,VALID,0,VALID,91.0214,VALID,0,VALID,23.6232,VALID,74,VALID,0.670313,
2009-06-14, 03:30:04,VALID,1000.64,VALID,0,VALID,90.8077,VALID,0,VALID,23.6445,VALID,74,VALID,0.495313,
2009-06-14, 03:31:04,VALID,1000.64,VALID,0,VALID,90.678,VALID,0,VALID,23.6445,VALID,74,VALID,0.380859,
2009-06-14, 03:32:04,VALID,1000.61,VALID,0,VALID,90.6017,VALID,0,VALID,23.664,VALID,108,VALID,0.432031,
2009-06-14, 03:33:04,VALID,1000.58,VALID,0,VALID,90.4263,VALID,0,VALID,23.6622,VALID,108,VALID,0.322656,
2009-06-14, 03:34:04,VALID,1000.55,VALID,0,VALID,90.3194,VALID,0,VALID,23.703,VALID,108,VALID,0.362891,
2009-06-14, 03:35:04,VALID,1000.52,VALID,0,VALID,90.5178,VALID,0,VALID,23.742,VALID,108,VALID,0.448438,
2009-06-14, 03:36:04,VALID,1000.46,VALID,0,VALID,90.4034,VALID,0,VALID,23.8006,VALID,125,VALID,0.653906,
2009-06-14, 03:37:04,VALID,1000.46,VALID,0,VALID,90.1974,VALID,0,VALID,23.8396,VALID,137,VALID,0.655078,
2009-06-14, 03:38:04,VALID,1000.45,VALID,0,VALID,90.0448,VALID,0,VALID,23.8573,VALID,143,VALID,0.619531,
2009-06-14, 03:39:04,VALID,1000.44,VALID,0,VALID,89.8846,VALID,0,VALID,23.9159,VALID,146,VALID,0.744531,
2009-06-14, 03:40:04,VALID,1000.44,VALID,0,VALID,89.3581,VALID,0,VALID,23.9744,VALID,146,VALID,0.875,
2009-06-14, 03:41:04,VALID,1000.45,VALID,0,VALID,88.9385,VALID,0,VALID,24.0329,VALID,143,VALID,0.767969,
2009-06-14, 03:42:04,VALID,1000.44,VALID,0,VALID,88.7172,VALID,0,VALID,24.0915,VALID,140,VALID,1.14336,
2009-06-14, 03:43:04,VALID,1000.49,VALID,0,VALID,88.3357,VALID,0,VALID,24.1696,VALID,141,VALID,0.833203,
2009-06-14, 03:44:04,VALID,1000.46,VALID,0,VALID,87.8932,VALID,0,VALID,24.2281,VALID,147,VALID,0.643359,
2009-06-14, 03:45:04,VALID,1000.47,VALID,0,VALID,87.8703,VALID,0,VALID,24.2671,VALID,147,VALID,0.453125,
2009-06-14, 03:46:04,VALID,1000.5,VALID,0,VALID,87.9619,VALID,0,VALID,24.2476,VALID,146,VALID,0.394531,